�N����,����,�~����,�C��,���x,�C��,����,���ϕ���,�ő�u�ԕ���,�ő厞����,���˗�,�I�_���x,�n�����x,�ő啗���N��,DTYPE
"19/10/08","00:10",0.0,19.2,93.0,1010.0,273.9,0.8,1.2,292.4,0.00,18.1,22.3,"00:01:20",1
"19/10/08","00:20",0.0,19.2,93.0,1009.7,273.9,1.0,1.4,248.7,0.00,18.1,22.3,"00:15:20",1
"19/10/08","00:30",0.0,19.2,93.3,1009.7,296.0,1.2,2.4,326.4,0.00,18.1,22.2,"00:22:48",1
"19/10/08","00:40",0.0,19.3,93.4,1009.7,297.8,0.8,1.1,305.0,0.00,18.2,22.3,"00:36:08",1
"19/10/08","00:50",0.0,19.2,93.3,1009.7,284.9,0.8,1.3,321.2,0.00,18.1,22.2,"00:45:36",1
"19/10/08","01:00",0.0,19.2,93.4,1009.5,292.6,1.1,1.3,307.4,0.00,18.1,22.2,"00:50:56",1
"19/10/08","01:10",0.0,19.1,93.6,1009.5,289.9,0.8,1.2,271.8,0.00,18.1,22.2,"01:00:08",1
"19/10/08","01:20",0.0,19.2,93.8,1009.5,288.5,0.8,1.2,314.3,0.00,18.2,22.1,"01:11:04",1
"19/10/08","01:30",0.0,19.2,93.7,1009.3,281.5,0.8,1.4,316.8,0.00,18.2,22.2,"01:26:24",1
"19/10/08","01:40",0.0,19.3,93.8,1009.0,287.4,0.7,1.2,303.9,0.00,18.3,22.1,"01:30:56",1
"19/10/08","01:50",0.0,19.2,93.7,1009.0,299.4,0.5,1.4,323.3,0.00,18.2,21.9,"01:49:52",1
"19/10/08","02:00",0.0,19.2,93.8,1008.6,299.7,1.2,1.8,320.1,0.00,18.2,22.1,"01:51:36",1
"19/10/08","02:10",0.0,19.2,94.1,1008.6,296.7,0.8,1.4,321.2,0.00,18.3,22.0,"02:01:44",1
"19/10/08","02:20",0.0,19.2,94.1,1008.1,323.1,1.5,2.0,338.4,0.00,18.3,22.2,"02:16:16",1
"19/10/08","02:30",0.0,19.2,94.2,1008.1,289.1,1.0,1.3,315.6,0.00,18.3,22.0,"02:20:16",1
"19/10/08","02:40",0.0,19.2,94.2,1008.1,308.1,0.7,1.6,319.4,0.00,18.3,22.1,"02:38:56",1
"19/10/08","02:50",0.0,19.2,94.4,1007.8,308.7,1.2,1.9,326.6,0.00,18.3,22.0,"02:46:56",1
"19/10/08","03:00",0.0,19.3,94.5,1007.8,296.6,0.6,1.2,282.1,0.00,18.4,22.0,"02:57:44",1
"19/10/08","03:10",0.0,19.2,94.4,1007.6,303.1,1.1,1.6,324.0,0.00,18.3,21.9,"03:01:12",1
"19/10/08","03:20",0.0,19.2,94.4,1007.8,294.9,1.0,1.6,318.8,0.00,18.3,22.0,"03:17:36",1
"19/10/08","03:30",0.0,19.3,94.4,1008.1,308.7,1.1,1.7,324.6,0.00,18.4,22.2,"03:26:48",1
"19/10/08","03:40",0.0,19.4,94.6,1007.6,302.6,0.6,1.1,304.6,0.00,18.6,21.9,"03:30:08",1
"19/10/08","03:50",0.0,19.5,94.6,1007.4,306.9,1.0,1.3,315.0,0.00,18.7,22.0,"03:41:52",1
"19/10/08","04:00",0.0,19.5,94.3,1007.8,306.7,1.1,2.0,331.2,0.00,18.6,22.0,"03:59:12",1
"19/10/08","04:10",0.0,19.5,94.6,1007.4,326.5,1.2,2.0,322.8,0.00,18.7,22.0,"04:07:52",1
"19/10/08","04:20",0.0,19.6,94.7,1007.4,288.4,0.6,1.3,324.0,0.00,18.8,21.8,"04:19:44",1
"19/10/08","04:30",0.0,19.6,94.6,1007.4,316.2,1.3,1.8,321.4,0.00,18.7,22.0,"04:24:16",1
"19/10/08","04:40",0.0,19.5,94.5,1007.8,303.9,1.1,1.8,329.4,0.00,18.6,22.0,"04:32:16",1
"19/10/08","04:50",0.0,19.5,94.6,1007.6,291.0,0.5,1.1,269.5,0.00,18.7,22.0,"04:41:52",1
"19/10/08","05:00",0.0,19.5,94.6,1007.6,32.2,0.5,1.4,314.6,0.00,18.7,22.0,"04:59:44",1
"19/10/08","05:10",0.0,19.6,94.7,1007.1,327.5,1.3,1.9,324.9,0.00,18.8,22.0,"05:08:16",1
"19/10/08","05:20",0.0,19.5,94.8,1007.1,300.0,1.1,1.7,332.2,0.00,18.7,22.0,"05:10:32",1
"19/10/08","05:30",0.0,19.5,94.8,1007.6,268.4,0.8,1.3,308.0,0.00,18.7,22.0,"05:20:24",1
"19/10/08","05:40",0.0,19.5,94.7,1007.1,301.9,0.8,1.3,300.0,0.00,18.7,21.9,"05:30:16",1
"19/10/08","05:50",0.0,19.6,94.6,1007.4,324.0,1.0,1.8,334.8,0.00,18.7,21.9,"05:47:20",1
"19/10/08","06:00",0.0,19.6,94.8,1007.4,308.4,1.0,1.6,349.8,0.00,18.8,21.8,"05:50:40",1
"19/10/08","06:10",0.0,19.6,94.6,1007.1,303.1,0.7,1.4,347.2,0.00,18.7,21.7,"06:09:52",1
"19/10/08","06:20",0.2,19.6,94.8,1007.1,309.8,0.7,1.3,352.5,0.00,18.8,21.7,"06:10:08",1
"19/10/08","06:30",0.0,19.6,94.9,1007.1,326.4,0.8,1.6,308.3,0.00,18.8,21.9,"06:28:32",1
"19/10/08","06:40",0.0,19.6,95.0,1006.9,282.5,0.8,1.3,247.3,0.00,18.8,21.8,"06:32:56",1
"19/10/08","06:50",0.0,19.6,94.8,1006.9,301.7,0.8,1.3,345.2,0.00,18.8,21.6,"06:40:32",1
"19/10/08","07:00",0.0,19.6,94.9,1007.1,337.7,1.1,1.7,343.4,0.00,18.8,21.7,"06:59:12",1
"19/10/08","07:10",0.0,19.7,95.0,1007.1,307.8,1.0,1.6,321.0,0.00,18.9,21.7,"07:00:48",1
"19/10/08","07:20",0.0,19.7,94.9,1007.1,304.7,0.5,1.0,303.5,0.00,18.9,21.9,"07:15:44",1
"19/10/08","07:30",0.0,19.8,95.1,1007.1,305.0,0.7,1.1,337.2,0.00,19.0,21.8,"07:24:00",1
"19/10/08","07:40",0.0,19.8,94.8,1007.4,313.9,1.1,1.4,316.2,0.00,19.0,21.8,"07:33:20",1
"19/10/08","07:50",0.0,19.9,94.9,1007.1,283.4,0.6,1.2,331.2,0.01,19.1,21.9,"07:40:08",1
"19/10/08","08:00",0.0,20.2,94.9,1007.1,297.8,0.8,1.3,304.7,0.02,19.4,21.8,"07:53:04",1
"19/10/08","08:10",0.0,20.3,94.2,1007.4,287.7,0.7,1.3,309.6,0.02,19.4,21.9,"08:01:04",1
"19/10/08","08:20",0.0,20.7,94.7,1007.1,291.7,0.8,1.1,304.5,0.05,19.9,21.9,"08:11:28",1
"19/10/08","08:30",0.0,20.8,93.6,1006.9,292.4,0.8,1.7,295.2,0.13,19.8,22.2,"08:27:52",1
"19/10/08","08:40",0.0,21.4,91.7,1006.9,295.8,1.0,1.8,334.4,0.12,20.0,22.2,"08:31:04",1
"19/10/08","08:50",0.0,21.8,89.9,1006.9,322.0,0.8,1.8,320.4,0.08,20.1,22.3,"08:42:08",1
"19/10/08","09:00",0.0,21.9,89.4,1006.9,332.0,0.8,1.9,340.9,0.07,20.1,22.4,"08:57:04",1
"19/10/08","09:10",0.0,21.9,89.0,1007.4,336.0,1.3,2.4,342.8,0.05,20.0,22.3,"09:06:00",1
"19/10/08","09:20",0.0,21.8,87.1,1007.4,306.2,1.0,1.9,326.8,0.03,19.6,22.2,"09:10:08",1
"19/10/08","09:30",0.0,21.9,87.1,1007.4,294.5,0.8,1.1,298.0,0.02,19.7,22.4,"09:24:48",1
"19/10/08","09:40",0.0,21.9,86.8,1007.6,310.4,1.3,2.2,321.1,0.03,19.6,22.1,"09:38:00",1
"19/10/08","09:50",0.0,21.8,87.7,1007.4,319.3,1.3,2.2,333.0,0.01,19.7,22.4,"09:41:28",1
"19/10/08","10:00",0.0,21.5,88.3,1007.1,307.9,0.6,1.3,317.7,0.01,19.5,22.3,"09:51:04",1
"19/10/08","10:10",0.0,21.3,88.7,1007.1,256.3,0.5,1.1,232.5,0.02,19.4,22.4,"10:03:28",1
"19/10/08","10:20",0.0,21.3,89.6,1007.4,105.4,0.6,1.3,81.1,0.03,19.6,22.3,"10:11:04",1
"19/10/08","10:30",0.0,21.3,90.3,1007.1,64.7,0.5,1.0,71.4,0.04,19.7,22.5,"10:29:12",1
"19/10/08","10:40",0.0,21.5,90.7,1007.1,95.4,0.6,1.4,98.5,0.07,20.0,22.5,"10:34:48",1
"19/10/08","10:50",0.0,21.8,90.4,1006.9,83.4,0.3,1.3,105.3,0.11,20.2,22.5,"10:41:52",1
"19/10/08","11:00",0.0,21.6,90.7,1006.9,173.3,0.6,1.6,135.8,0.03,20.1,22.5,"10:58:08",1
"19/10/08","11:10",0.0,21.4,90.9,1006.7,110.8,0.6,1.6,107.7,0.02,19.9,22.7,"11:01:36",1
"19/10/08","11:20",0.0,21.5,91.5,1006.7,96.3,0.3,1.2,98.5,0.01,20.1,22.5,"11:17:20",1
"19/10/08","11:30",0.0,21.5,91.5,1006.9,135.7,0.3,1.1,115.5,0.01,20.1,22.5,"11:20:56",1
"19/10/08","11:40",0.0,21.4,91.3,1006.9,191.9,0.3,1.2,206.9,0.01,20.0,22.6,"11:39:12",1
"19/10/08","11:50",0.0,21.3,91.6,1006.7,216.5,1.1,2.5,208.9,0.01,19.9,22.6,"11:46:08",1
"19/10/08","12:00",0.0,21.3,92.0,1006.7,222.9,0.8,2.4,212.7,0.00,20.0,22.7,"11:50:16",1
"19/10/08","12:10",0.0,21.3,92.3,1006.4,212.9,0.3,1.3,168.3,0.01,20.0,22.5,"12:02:16",1
"19/10/08","12:20",0.0,21.4,92.5,1006.7,238.6,0.3,1.2,238.9,0.00,20.2,22.4,"12:16:00",1
"19/10/08","12:30",0.0,21.4,92.2,1006.7,285.3,0.7,1.4,323.8,0.02,20.1,22.7,"12:21:44",1
"19/10/08","12:40",0.0,21.5,92.4,1006.2,260.1,0.5,0.8,243.4,0.05,20.3,22.6,"12:36:32",1
"19/10/08","12:50",0.0,21.6,92.6,1006.4,221.3,0.3,1.1,237.6,0.04,20.4,22.6,"12:44:16",1
"19/10/08","13:00",0.0,21.5,93.0,1006.2,244.7,0.7,1.3,239.0,0.01,20.4,22.5,"12:51:12",1
"19/10/08","13:10",0.0,21.4,92.9,1006.2,153.6,0.3,1.3,211.9,0.03,20.2,22.6,"13:02:00",1
"19/10/08","13:20",0.0,21.5,92.9,1006.2,201.3,0.1,0.5,87.4,0.01,20.3,22.6,"13:14:16",1
"19/10/08","13:30",0.0,21.5,93.2,1006.4,314.3,0.7,1.1,319.7,0.00,20.4,22.7,"13:23:20",1
"19/10/08","13:40",0.0,21.4,93.2,1006.2,305.0,0.6,1.1,321.8,0.00,20.3,22.7,"13:31:44",1
"19/10/08","13:50",0.0,21.4,93.5,1006.2,311.3,0.7,1.3,323.7,0.00,20.3,22.7,"13:49:20",1
"19/10/08","14:00",0.0,20.9,91.9,1006.2,316.6,1.2,2.1,325.5,0.00,19.6,22.5,"13:52:24",1
"19/10/08","14:10",0.0,20.5,92.9,1006.2,333.7,1.2,2.4,322.3,0.00,19.4,22.6,"14:00:48",1
"19/10/08","14:20",0.0,20.3,92.8,1006.7,316.2,1.5,3.4,335.3,0.00,19.1,22.5,"14:12:24",1
"19/10/08","14:30",0.0,20.4,93.1,1006.4,331.3,1.8,3.1,340.5,0.05,19.3,22.5,"14:26:24",1
"19/10/08","14:40",0.0,20.2,92.3,1006.7,342.4,1.8,3.7,349.1,0.03,19.0,22.4,"14:31:36",1
"19/10/08","14:50",0.0,21.0,91.9,1006.2,337.3,1.8,2.9,340.0,0.12,19.7,22.5,"14:49:52",1
"19/10/08","15:00",0.0,21.0,90.8,1006.7,326.5,1.5,2.8,332.5,0.06,19.5,22.5,"14:53:12",1
"19/10/08","15:10",0.0,20.9,89.5,1006.7,330.3,1.1,2.1,24.6,0.07,19.1,22.6,"15:03:20",1
"19/10/08","15:20",0.0,21.3,89.5,1006.7,310.9,1.5,3.2,338.4,0.11,19.5,22.4,"15:17:28",1
"19/10/08","15:30",0.0,21.5,87.1,1006.4,330.3,1.7,3.1,347.6,0.12,19.3,22.7,"15:24:08",1
"19/10/08","15:40",0.0,21.5,86.4,1006.7,321.9,1.3,2.6,349.3,0.07,19.2,22.4,"15:33:44",1
"19/10/08","15:50",0.0,21.4,84.9,1006.9,345.5,1.5,3.4,338.9,0.04,18.8,22.7,"15:48:32",1
"19/10/08","16:00",0.0,21.4,84.3,1006.7,338.8,1.6,3.4,335.6,0.05,18.7,22.6,"15:56:40",1
"19/10/08","16:10",0.2,21.7,83.0,1006.9,329.3,1.2,2.1,308.6,0.08,18.7,22.8,"16:04:32",1
"19/10/08","16:20",0.0,21.8,82.5,1006.4,345.2,0.8,1.9,342.5,0.08,18.7,22.7,"16:11:12",1
"19/10/08","16:30",0.0,21.8,81.6,1006.4,356.4,0.6,1.4,20.7,0.04,18.6,22.7,"16:21:12",1
"19/10/08","16:40",0.0,21.9,81.7,1006.9,342.5,0.7,1.8,338.7,0.06,18.7,22.7,"16:38:58",1
"19/10/08","16:50",0.0,21.5,81.1,1006.9,0.9,1.1,2.5,9.7,0.04,18.2,22.7,"16:46:24",1
"19/10/08","17:00",0.0,21.3,80.3,1006.9,0.3,1.7,4.4,338.5,0.02,17.8,22.7,"16:57:20",1
"19/10/08","17:10",0.0,21.1,79.6,1007.1,3.4,1.8,3.5,8.0,0.01,17.5,22.4,"17:03:20",1
"19/10/08","17:20",0.0,20.9,79.2,1007.4,338.0,1.7,3.5,334.8,0.00,17.2,22.7,"17:14:32",1
"19/10/08","17:30",0.0,21.0,79.2,1007.4,356.5,1.3,3.1,4.3,0.00,17.3,22.6,"17:24:00",1
"19/10/08","17:40",0.0,20.8,79.5,1007.1,7.6,1.2,2.7,24.2,0.00,17.2,22.5,"17:34:32",1
"19/10/08","17:50",0.0,20.7,79.8,1006.9,11.2,1.3,2.4,67.7,0.00,17.1,22.6,"17:44:16",1
"19/10/08","18:00",0.0,20.5,80.6,1007.4,332.8,1.1,2.8,335.7,0.00,17.1,22.3,"17:53:36",1
"19/10/08","18:10",0.0,20.1,82.0,1007.6,337.5,0.8,1.6,326.7,0.00,17.0,22.4,"18:08:08",1
"19/10/08","18:20",0.0,19.6,83.8,1007.6,334.3,0.8,1.6,21.8,0.00,16.8,22.3,"18:14:18",1
"19/10/08","18:30",0.0,19.2,85.6,1008.1,312.8,0.8,2.0,347.4,0.00,16.8,22.4,"18:20:56",1
"19/10/08","18:40",0.0,18.9,86.8,1008.3,295.8,1.0,2.1,317.5,0.00,16.7,22.1,"18:35:28",1
"19/10/08","18:50",0.0,18.6,87.6,1008.1,308.4,1.0,1.9,334.6,0.00,16.5,22.1,"18:48:00",1
"19/10/08","19:00",0.0,18.3,88.3,1008.1,303.3,0.6,1.4,328.3,0.00,16.4,21.9,"18:56:24",1
"19/10/08","19:10",0.0,18.1,89.1,1008.3,297.1,0.8,1.6,321.6,0.00,16.3,21.6,"19:01:44",1
"19/10/08","19:20",0.0,18.1,89.2,1008.6,295.0,1.0,1.7,328.8,0.00,16.3,21.8,"19:14:16",1
"19/10/08","19:30",0.0,18.0,89.2,1008.6,317.6,1.2,2.8,318.8,0.00,16.2,21.6,"19:20:56",1
"19/10/08","19:40",0.0,17.8,90.0,1008.6,313.2,1.1,1.8,342.0,0.00,16.2,21.7,"19:33:28",1
"19/10/08","19:50",0.0,18.0,89.9,1008.8,296.0,1.2,2.4,337.0,0.00,16.4,21.6,"19:48:00",1
"19/10/08","20:00",0.0,18.2,89.5,1008.8,271.6,1.0,1.3,255.5,0.00,16.5,21.6,"19:51:04",1
"19/10/08","20:10",0.0,18.4,89.1,1009.3,288.2,1.2,5.0,334.0,0.00,16.6,21.6,"20:07:28",1
"19/10/08","20:20",0.0,18.5,88.4,1009.3,305.2,1.1,1.8,315.1,0.00,16.6,21.5,"20:14:16",1
"19/10/08","20:30",0.0,18.5,87.9,1009.3,266.9,1.0,2.0,249.4,0.00,16.5,21.3,"20:27:44",1
"19/10/08","20:40",0.0,18.6,87.2,1009.3,286.8,1.2,2.5,229.1,0.00,16.5,21.3,"20:36:32",1
"19/10/08","20:50",0.0,18.5,86.3,1009.5,303.8,1.3,3.1,337.5,0.00,16.2,21.5,"20:48:48",1
"19/10/08","21:00",0.0,18.4,86.0,1009.5,313.0,1.5,2.7,323.2,0.00,16.1,21.1,"20:53:20",1
"19/10/08","21:10",0.0,18.3,85.7,1009.5,318.0,1.3,2.8,339.6,0.00,15.9,21.2,"21:06:08",1
"19/10/08","21:20",0.0,18.3,85.8,1009.5,314.5,1.6,4.3,335.8,0.00,15.9,21.1,"21:16:40",1
"19/10/08","21:30",0.0,18.3,85.1,1010.0,300.6,1.2,2.5,306.5,0.00,15.8,21.4,"21:21:44",1
"19/10/08","21:40",0.0,18.2,84.8,1010.0,319.1,1.5,2.6,316.6,0.00,15.6,20.9,"21:38:24",1
"19/10/08","21:50",0.0,18.0,84.6,1009.7,306.7,1.5,3.6,325.9,0.00,15.4,21.0,"21:47:52",1
"19/10/08","22:00",0.0,18.3,83.2,1010.4,318.2,2.2,4.0,338.6,0.00,15.4,20.9,"21:51:04",1
"19/10/08","22:10",0.0,18.5,81.4,1010.2,308.9,2.0,5.6,341.7,0.00,15.3,20.9,"22:04:08",1
"19/10/08","22:20",0.0,18.1,81.2,1010.7,304.9,1.5,2.6,326.0,0.00,14.9,20.9,"22:10:48",1
"19/10/08","22:30",0.0,17.9,81.5,1010.2,306.5,1.5,2.7,312.3,0.00,14.7,20.7,"22:20:40",1
"19/10/08","22:40",0.0,17.4,83.2,1010.4,288.5,1.2,2.7,340.2,0.00,14.6,20.8,"22:37:52",1
"19/10/08","22:50",0.0,17.3,83.0,1010.2,287.8,1.3,3.1,324.3,0.00,14.4,20.7,"22:49:36",1
"19/10/08","23:00",0.0,17.4,82.6,1010.2,288.0,1.3,2.0,300.1,0.00,14.5,20.6,"22:50:16",1
"19/10/08","23:10",0.0,17.5,81.5,1010.4,286.7,1.3,2.4,319.5,0.00,14.3,20.6,"23:02:16",1
"19/10/08","23:20",0.0,17.3,80.8,1010.2,296.1,1.3,2.1,325.2,0.00,14.0,20.5,"23:12:16",1
"19/10/08","23:30",0.0,17.2,80.3,1010.7,287.8,1.1,1.8,306.6,0.00,13.8,20.5,"23:28:56",1
"19/10/08","23:40",0.0,17.2,80.0,1010.2,298.7,1.5,2.4,334.2,0.00,13.8,20.3,"23:31:20",1
"19/10/08","23:50",0.0,17.2,79.9,1010.7,296.7,1.6,4.0,333.8,0.00,13.7,20.3,"23:46:00",1
"19/10/08","24:00",0.0,17.2,79.3,1010.4,300.4,1.3,2.5,303.7,0.00,13.6,20.3,"23:56:24",1
